Location: Maccacari
(45.1333°N, 11.1333°E)
Time: 00:50:48
(UTC+00:00)

Tiros 1 despin weight - Pass Details

Date: 30 January 2021
Orbit: 593 x 642 km, 48.2° (Epoch: 07 March)

Event Time Altitude Azimuth Distance (km) Brightness Sun altitude
Rises 13:29:20 0° 270° (W) 2,903 ? 21.6°
Reaches altitude 10° 13:31:42 10° 274° (W) 1,989 ? 21.4°
Maximum altitude 13:36:13 59° 354° (N) 710 ? 21.0°
Drops below altitude 10° 13:40:40 10° 75° (ENE) 1,959 ? 20.6°
Sets 13:42:59 0° 79° (E) 2,855 ? 20.3°
